コワルスキー彗星

C/2011 S2 ( Kowalski )

English version
Home page
Updated on April 7, 2012

---------------------------------------------------------------------

・ プロフィール

発見日 2011年9月30日
発見光度 15.7等
発見者 R. A. Kowalski (Catalina Sky Survey)

・ 写真集

・ 軌道要素

Epoch 2011 Nov. 15.0 TT = JDT 2455880.5
T 2011 Oct. 26.34730 TT                                 MPC
q   1.1151083            (2000.0)            P               Q
n   0.01498251     Peri.  192.18951     -0.49454709     -0.82039139
a  16.2959524      Node   288.06978     +0.82063981     -0.33196587
e   0.9315715      Incl.   17.57245     +0.28631012     -0.46557129
P  65.8
From 304 observations 2011 Sept. 30-2012 Mar. 28, mean residual 0".5.

・ 星図

・ 光度変化

        m1 = 14.0 + 5 logΔ + 7.5 log r(t - 30)

---------------------------------------------------------------------

軌道要素はM.P.E.C. 2012-G18に掲載されたものです。
星図はステラナビゲータ Ver.8 (アストロアーツ) で作成したものです。
光度グラフはComet for Windowsで作成したものです。

---------------------------------------------------------------------

Copyright(C) Seiichi Yoshida (comet@aerith.net). All rights reserved.